Location: Alta
(39.2070°N, 120.8111°W)
Time: 19:10:57
(UTC+00:00)

POLYITAN 1 - Pass Details

Date: 03 April 2023
Orbit: 575 x 592 km, 98.0° (Epoch: 01 June)

Event Time Altitude Azimuth Distance (km) Brightness Sun altitude
Rises 10:17:00 0° 13° (NNE) 2,810 ? -36.3°
Reaches altitude 10° 10:19:11 10° 14° (NNE) 1,903 ? -36.0°
Enters shadow 10:19:35 13° 14° (NNE) 1,733 ? -35.9°
